This is the latest recevied weather packets stored in our database for station/object I0UVN-10. If no packets are shown the sender has not sent any weather packets the latest 10 day(s).
| Time | Temp. | Humidity | Pressure | Rain* | Wind** | Luminosity | Snow |
|---|---|---|---|---|---|---|---|
| 1788264042 | 30.56° C | 48% | 1021.3 hPa | - | - | - | - |
| 1788264026 | 30.56° C | 48% | 1021.3 hPa | - | - | - | - |
| 1788263083 | 30.56° C | 47% | 1021.3 hPa | - | - | - | - |
| 1788262848 | 30.56° C | 47% | 1021.3 hPa | - | - | - | - |
| 1788262810 | 30.56° C | 47% | 1021.3 hPa | - | - | - | - |
| 1788261610 | 30.56° C | 45% | 1021.2 hPa | - | - | - | - |
| 1788260465 | 30.56° C | 47% | 1021.3 hPa | - | - | - | - |
| 1788260410 | 30.56° C | 47% | 1021.3 hPa | - | - | - | - |
| 1788259209 | 30.56° C | 49% | 1021.2 hPa | - | - | - | - |
| 1788258009 | 30.56° C | 48% | 1021.4 hPa | - | - | - | - |
| 1788256857 | 30° C | 50% | 1021.5 hPa | - | - | - | - |
| 1788255657 | 30° C | 53% | 1021.5 hPa | - | - | - | - |
| 1788254457 | 30° C | 53% | 1021.5 hPa | - | - | - | - |
| 1788253257 | 30° C | 53% | 1021.5 hPa | - | - | - | - |
| 1788252056 | 29.44° C | 53% | 1021.5 hPa | - | - | - | - |
| 1788250891 | 29.44° C | 53% | 1021.3 hPa | - | - | - | - |
| 1788250856 | 29.44° C | 53% | 1021.3 hPa | - | - | - | - |
| 1788249656 | 29.44° C | 52% | 1021 hPa | - | - | - | - |
| 1788248456 | 29.44° C | 51% | 1020.9 hPa | - | - | - | - |
| 1788247256 | 28.89° C | 49% | 1020.7 hPa | - | - | - | - |
| 1788246056 | 28.33° C | 50% | 1020.7 hPa | - | - | - | - |
| 1788244856 | 28.89° C | 51% | 1020.7 hPa | - | - | - | - |
| 1788243656 | 28.33° C | 51% | 1020.7 hPa | - | - | - | - |
| 1788242455 | 28.33° C | 50% | 1020.7 hPa | - | - | - | - |
| 1788241255 | 28.33° C | 51% | 1020.7 hPa | - | - | - | - |
* Rain since midnight (hover to see other rain measurements)
** Current wind speed in m/s (hover to see current wind gust speed)